Weather observations for the past three days for
Ithaca Tompkins International Airport
Metric (Imperial)
Date Time (edt) Wind (kph) Vis. (km) Weather Sky Cond. Temperature (ºC) Relative Humidity Wind Chill (°C) Heat Index (°C) Pressure Precipitation (cm)
Air Dwpt 6 hour altimeter (cm) sea level (mb) 1 hr 3 hr 6 hr
Max. Min.
21 11:56 NW 15 16.09 Partly Cloudy SCT050 29.4 22.8 68% 33 76.73 1022.0
21 10:56 W 6 16.09 A Few Clouds FEW055 27.8 22.8 74% 31 76.76 1022.5
21 09:56 S 9 16.09 Fair CLR 28.3 23.3 74% 32 76.78 1022.6
21 08:56 Vrbl 6 16.09 Fair CLR 26.7 22.2 76% 29 76.81 1023.0
21 07:56 Calm 16.09 Fair CLR 24.4 21.7 24.4 19.4 85% 25 76.81 1023.2
21 06:56 Calm 16.09 Fair CLR 21.7 20.6 94% 76.81 1023.1
21 05:56 SE 6 9.66 Fog/Mist CLR 20 19.4 96% 76.78 1022.8
21 04:56 E 6 12.87 Fair CLR 20 20 100% 76.81 1023.1
21 03:56 Calm 14.48 Fair CLR 20.6 20 96% 76.84 1023.5
21 02:56 E 6 12.87 Fair CLR 21.1 20.6 97% 76.84 1023.6
21 01:56 E 7 16.09 Fair CLR 21.1 20.6 27.8 20 97% 76.89 1024.1
21 00:56 Calm 14.48 Fair CLR 20 20 100% 76.89 1024.1
20 23:56 Calm 16.09 Fair CLR 21.7 20.6 94% 76.91 1024.4
20 22:56 Calm 16.09 Fair CLR 21.7 20.6 94% 76.91 1024.5
20 21:56 Calm 16.09 Fair CLR 22.2 21.1 94% 76.89 1024.2
20 20:56 Calm 16.09 Fair CLR 23.9 22.2 90% 23 76.86 1023.8
20 19:56 SW 6 16.09 Fair CLR 27.8 22.2 31.1 24.4 72% 30 76.86 1023.9
20 18:56 W 6 16.09 Fair CLR 28.9 22.2 67% 32 76.86 1023.9
20 17:56 Vrbl 6 16.09 Fair CLR 30 22.2 63% 33 76.89 1024.1
20 16:56 Calm 16.09 Light Rain CLR 28.3 22.8 72% 32 76.91 1024.6
20 15:56 W 7 16.09 Light Rain BKN035 26.1 22.2 79% 28 76.96 1025.2
20 14:56 NW 15 16.09 Partly Cloudy SCT060 27.2 21.7 72% 29 76.96 1025.0
20 13:56 W 9 16.09 Partly Cloudy SCT060 30.6 22.8 31.7 24.4 63% 35 76.99 1025.2
20 12:56 S 7 16.09 Fair CLR 30.6 22.8 63% 35 77.01 1025.7
20 11:56 SE 7 16.09 Fair CLR 30.6 21.7 59% 34 77.04 1025.9
20 10:56 SE 7 16.09 Fair CLR 29.4 21.7 63% 32 77.04 1026.1
20 09:56 W 6 16.09 Fair CLR 26.7 20.6 69% 28 77.06 1026.4
20 08:56 N 9 16.09 Fair CLR 25.6 20.6 74% 27 77.09 1026.8
20 07:56 NW 13 16.09 Fair CLR 24.4 21.1 24.4 21.1 82% 25 77.09 1026.8
20 06:56 Vrbl 7 16.09 Fair CLR 21.7 20.6 94% 77.06 1026.3
20 05:56 Calm 16.09 Fair CLR 21.1 20 93% 77.01 1025.7
20 04:56 Calm 16.09 Fair CLR 22.2 20 87% 77.01 1025.6
20 03:56 SE 13 16.09 Fair CLR 22.8 20.6 87% 76.96 1024.9
20 02:56 Calm 16.09 Fair CLR 23.3 20.6 85% 76.99 1025.2
20 01:56 NW 9 16.09 A Few Clouds FEW050 24.4 20.6 29.4 23.3 79% 25 77.04 1026.0
20 00:56 Calm 16.09 Fair CLR 25 20.6 77% 26 77.06 1026.3
19 23:56 S 9 16.09 Fair CLR 25 20.6 77% 26 77.04 1026.0
19 22:56 S 11 16.09 Fair CLR 25 21.1 79% 26 77.04 1026.0
19 21:56 S 9 16.09 Fair CLR 26.1 21.7 77% 28 77.01 1025.7
19 20:56 SE 7 16.09 Fair CLR 27.8 22.2 72% 30 76.94 1024.7
19 19:56 S 9 16.09 Fair CLR 29.4 23.3 32.8 29.4 70% 34 76.94 1024.5
19 18:56 S 13 16.09 Fair CLR 31.1 22.8 61% 35 76.91 1024.4
19 17:56 SE 9 16.09 Mostly Cloudy BKN045 31.7 23.9 63% 37 76.91 1024.3
19 16:56 Vrbl 9 16.09 Partly Cloudy SCT050 32.2 22.8 58% 37 76.94 1024.4
19 15:56 S 11 16.09 Fair CLR 32.2 22.2 56% 36 76.94 1024.8
19 14:56 SW 13 16.09 Fair CLR 31.1 22.2 59% 35 76.99 1025.2
19 13:56 S 13 16.09 Fair CLR 31.7 22.8 31.7 25.6 59% 36 77.01 1025.6
19 12:56 SW 13 16.09 Fair CLR 30 22.8 65% 34 77.06 1026.3
19 11:56 S 15 16.09 Fair CLR 30 22.2 63% 33 77.06 1026.3
19 10:56 S 9 16.09 Fair CLR 29.4 22.8 68% 33 77.09 1026.6
19 09:56 Vrbl 9 16.09 Fair CLR 28.3 22.8 72% 32 77.09 1026.6
19 08:56 S 13 16.09 Fair CLR 27.2 22.8 77% 30 77.06 1026.4
19 07:56 S 13 16.09 Fair CLR 26.1 22.2 26.1 22.8 79% 28 77.04 1026.0
19 06:56 SE 9 16.09 Fair CLR 25 21.7 82% 26 77.01 1025.6
19 05:56 SE 6 16.09 Fair CLR 23.3 21.1 88% 76.96 1025.0
19 04:56 SE 6 16.09 Fair CLR 23.9 21.1 84% 24 76.94 1024.6
19 03:56 SE 6 16.09 Fair CLR 24.4 21.7 85% 25 76.91 1024.1
19 02:56 SE 11 16.09 Fair CLR 24.4 21.7 85% 25 76.89 1023.9
19 01:56 S 11 16.09 Fair CLR 23.3 21.7 28.9 22.2 91% 76.86 1023.7
19 00:56 SE 7 16.09 Fair CLR 22.2 20.6 91% 76.86 1023.7
18 23:56 E 7 16.09 Fair CLR 23.3 20.6 85% 76.86 1023.8
18 22:56 N 13 16.09 A Few Clouds FEW049 25 20 74% 26 76.89 1024.2
18 21:56 SE 6 16.09 Fair CLR 26.1 21.7 77% 28 76.78 1022.8
18 20:56 SE 6 16.09 Fair CLR 27.2 22.2 74% 30 76.76 1022.2
18 19:56 SE 6 16.09 Fair CLR 28.9 23.3 32.8 28.3 72% 33 76.73 1022.2
18 18:56 SE 13 16.09 Mostly Cloudy SCT044 BKN060 30.6 23.3 65% 35 76.73 1021.9
18 17:56 SE 13 16.09 Mostly Cloudy BKN044 32.8 23.9 59% 39 76.71 1021.7
18 16:56 SE 11 16.09 Fair CLR 31.7 23.9 63% 37 76.71 1021.8
18 15:56 SW 7 16.09 A Few Clouds FEW040 31.7 23.3 61% 37 76.73 1022.0
18 14:56 S 9 16.09 Fair CLR 31.1 23.3 63% 36 76.78 1022.6
18 13:56 Vrbl 6 16.09 Fair CLR 30 21.7 30.6 23.3 61% 33 76.78 1022.8
18 12:56 Calm 16.09 Fair CLR 29.4 21.7 63% 32 76.81 1023.2
Date Time (edt) Wind (kph) Vis. (km) Weather Sky Cond. Air Dwpt Max. Min. Relative Humidity Wind Chill (°C) Heat Index (°C) altimeter (cm) sea level (mb) 1 hr 3 hr 6 hr
6 hour
Temperature (ºC) Pressure Precipitation (cm)